AB3YM Weather Reports


Display with metric or nautical units.
time (UTC)temp
F
wind
direction
speed
MPH
gust
MPH
rain 1hr
in
rain 24hr
in
rain mn
in
humidity
%
barometer
mb
20190820162915 94 246 4.0 4.0 0.00 0.00 0.00 52 1018.7
20190820161917 94 270 4.0 4.0 0.00 0.00 0.00 55 1018.8
20190820160917 95 78 3.0 4.0 0.00 0.00 0.00 55 1018.9
20190820155918 95 140 3.0 3.0 0.00 0.00 0.00 55 1019.0
20190820154920 94 31 6.0 7.0 0.00 0.00 0.00 56 1019.0
20190820153921 94 0 4.0 4.0 0.00 0.00 0.00 56 1019.2
20190820152921 92 270 2.0 3.0 0.00 0.00 0.00 57 1019.1
20190820151922 93 157 3.0 4.0 0.00 0.00 0.00 58 1019.1
20190820150917 93 354 5.0 6.0 0.00 0.00 0.00 58 1019.1
20190820145924 92 21 4.0 6.0 0.00 0.00 0.00 57 1019.1
20190820144925 92 270 3.0 3.0 0.00 0.00 0.00 58 1019.1
20190820143926 92 0 4.0 5.0 0.00 0.00 0.00 60 1019.2
20190820142926 91 270 3.0 5.0 0.00 0.00 0.00 60 1019.1
20190820141927 91 113 3.0 3.0 0.00 0.00 0.00 61 1019.1
20190820140928 91 337 2.0 3.0 0.00 0.00 0.00 62 1018.9
20190820135930 90 90 5.0 5.0 0.00 0.00 0.00 63 1019.0
20190820134931 90 67 4.0 6.0 0.00 0.00 0.00 63 1019.0
20190820133932 89 88 4.0 4.0 0.00 0.00 0.00 65 1019.0
20190820132914 88 22 3.0 3.0 0.00 0.00 0.00 68 1018.8
20190820131915 88 101 4.0 4.0 0.00 0.00 0.00 68 1018.9
20190820130916 87 58 1.0 1.0 0.00 0.00 0.00 70 1018.9
20190820125918 91 67 2.0 3.0 0.00 0.00 0.00 64 1019.0
20190820124918 91 282 2.0 2.0 0.00 0.00 0.00 65 1019.0
20190820123920 89 202 1.0 1.0 0.00 0.00 0.00 67 1019.0
20190820122921 88 105 1.0 2.0 0.00 0.00 0.00 68 1019.0
20190820121922 85 33 2.0 2.0 0.00 0.00 0.00 73 1018.9
20190820120924 85 67 2.0 2.0 0.00 0.00 0.00 73 1018.8
20190820115925 83 292 1.0 1.0 0.00 0.00 0.00 78 1018.8
20190820114925 81 0.0 0.0 0.00 0.00 0.00 83 1018.8
20190820113926 80 0.0 0.0 0.00 0.00 0.00 87 1018.6
20190820112927 78 0.0 0.0 0.00 0.00 0.00 88 1018.5
20190820111923 77 0.0 0.0 0.00 0.00 0.00 89 1018.5
20190820110918 77 0.0 0.0 0.00 0.00 0.00 89 1018.4
20190820105931 76 0.0 0.0 0.00 0.00 0.00 89 1018.1
20190820104932 76 0.0 0.0 0.00 0.00 0.00 89 1018.1
20190820103915 76 0.0 0.0 0.00 0.00 0.00 90 1018.1
20190820102917 76 0.0 0.0 0.00 0.00 0.00 90 1018.1
20190820101917 76 0.0 0.0 0.00 0.00 0.00 89 1018.1
20190820100918 76 0.0 0.0 0.00 0.00 0.00 89 1018.0
20190820095920 76 0.0 0.0 0.00 0.00 0.00 89 1017.9
20190820094921 76 0.0 0.0 0.00 0.00 0.00 89 1017.9
20190820093921 76 0.0 0.0 0.00 0.00 0.00 89 1017.8
20190820092922 77 0.0 0.0 0.00 0.00 0.00 88 1017.7
20190820091924 77 0.0 0.0 0.00 0.00 0.00 88 1017.8
20190820090919 77 0.0 0.0 0.00 0.00 0.00 87 1017.7
20190820085926 77 0.0 0.0 0.00 0.00 0.00 86 1017.6
20190820084927 77 0.0 0.0 0.00 0.00 0.00 85 1017.6
20190820083928 78 0.0 0.0 0.00 0.00 0.00 84 1017.5
20190820082929 78 0.0 0.0 0.00 0.00 0.00 84 1017.3
20190820081931 78 0.0 0.0 0.00 0.00 0.00 84 1017.3
20190820080932 78 0.0 0.0 0.00 0.00 0.00 83 1017.1
20190820075915 79 0.0 0.0 0.00 0.00 0.00 82 1017.1
20190820074915 79 0.0 0.0 0.00 0.00 0.00 81 1017.1
20190820073916 79 0.0 0.0 0.00 0.00 0.00 80 1017.2
20190820072918 79 0.0 0.0 0.00 0.00 0.00 80 1017.2
20190820071919 79 0.0 0.0 0.00 0.00 0.00 81 1017.1
20190820070920 79 0.0 0.0 0.00 0.00 0.00 80 1017.2
20190820065915 79 0.0 0.0 0.00 0.00 0.00 80 1017.3
20190820064923 80 0.0 0.0 0.00 0.00 0.00 80 1017.3
20190820063924 80 0.0 0.0 0.00 0.00 0.00 80 1017.1
20190820062925 80 0.0 0.0 0.00 0.00 0.00 80 1017.0
20190820061926 80 0.0 0.0 0.00 0.00 0.00 80 1016.9
20190820060927 80 0.0 0.0 0.00 0.00 0.00 81 1016.8
20190820055928 81 0.0 0.0 0.00 0.00 0.00 79 1016.8
20190820054929 81 0.0 0.0 0.00 0.00 0.00 78 1016.8
20190820053931 81 0.0 0.0 0.00 0.00 0.00 78 1016.8
20190820052932 81 0.0 0.0 0.00 0.00 0.00 78 1016.7
20190820051915 81 0.0 0.0 0.00 0.00 0.00 78 1016.8
20190820050916 81 90 1.0 2.0 0.00 0.00 0.00 78 1016.8
20190820045918 81 270 2.0 2.0 0.00 0.00 0.00 77 1016.7
20190820044918 82 0.0 0.0 0.00 0.00 0.00 75 1016.7
20190820043920 82 279 1.0 1.0 0.00 0.00 0.00 75 1016.6
20190820042921 82 247 0.0 1.0 0.00 0.00 0.00 73 1016.6
20190820041922 83 0.0 0.0 0.00 0.00 0.00 72 1016.9
20190820040924 83 0.0 1.0 0.00 0.00 0.00 71 1017.1
20190820035925 83 292 2.0 2.0 0.00 0.00 0.00 71 1017.3
20190820034926 83 0.0 0.0 0.00 0.00 0.00 71 1017.3
20190820033927 84 0.0 0.0 0.00 0.00 0.00 71 1017.4
20190820032928 84 270 3.0 3.0 0.00 0.00 0.00 72 1017.7
20190820031928 84 270 3.0 4.0 0.00 0.00 0.00 74 1017.2
20190820030923 84 90 1.0 1.0 0.00 0.00 0.00 72 1017.0
20190820025917 84 0.0 0.0 0.00 0.00 0.00 69 1017.0
20190820024930 85 0.0 0.0 0.00 0.00 0.00 67 1017.0
20190820023931 85 0.0 0.0 0.00 0.00 0.00 67 1016.8
20190820022932 85 180 0.0 1.0 0.00 0.00 0.00 66 1016.8
20190820021915 85 0.0 0.0 0.00 0.00 0.00 65 1016.7
20190820020916 85 0.0 0.0 0.00 0.00 0.00 64 1016.7
20190820015916 86 0.0 0.0 0.00 0.00 0.00 62 1016.4
20190820014917 85 281 1.0 1.0 0.00 0.00 0.00 63 1016.4
20190820013918 85 224 3.0 4.0 0.00 0.00 0.00 65 1016.4
20190820012919 86 225 1.0 2.0 0.00 0.00 0.00 65 1016.3
20190820011920 87 90 1.0 2.0 0.00 0.00 0.00 67 1016.2
20190820010921 87 202 0.0 1.0 0.00 0.00 0.00 66 1016.1
20190820005915 89 0.0 0.0 0.00 0.00 0.00 64 1016.0
20190820004922 89 0.0 0.0 0.00 0.00 0.00 63 1016.0
20190820003923 89 0.0 1.0 0.00 0.00 0.00 62 1015.9
20190820002924 89 0.0 0.0 0.00 0.00 0.00 61 1015.7
20190820001924 90 0.0 0.0 0.00 0.00 0.00 59 1015.5
20190820000925 90 0.0 0.0 0.00 0.00 0.00 60 1015.4
20190819235926 90 0.0 0.0 0.00 0.00 0.00 60 1015.3
20190819234927 91 0.0 0.0 0.00 0.00 0.00 59 1015.3
20190819233927 91 0.0 0.0 0.00 0.00 0.00 59 1015.2
20190819232928 92 0.0 0.0 0.00 0.00 0.00 58 1015.1
20190819231923 92 90 1.0 2.0 0.00 0.00 0.00 58 1014.9
20190819230918 93 90 1.0 2.0 0.00 0.00 0.00 57 1014.6
20190819225932 94 0.0 0.0 0.00 0.00 0.00 56 1014.3
20190819224933 95 0.0 0.0 0.00 0.00 0.00 55 1014.3
20190819223916 95 236 1.0 1.0 0.00 0.00 0.00 54 1014.3
20190819222916 95 270 1.0 1.0 0.00 0.00 0.00 54 1014.1
20190819221917 95 258 2.0 2.0 0.00 0.00 0.00 54 1014.1
20190819220918 96 247 1.0 2.0 0.00 0.00 0.00 54 1014.3
20190819215919 97 270 1.0 2.0 0.00 0.00 0.00 52 1014.3
20190819214919 97 337 1.0 2.0 0.00 0.00 0.00 52 1014.3
20190819213920 96 22 3.0 3.0 0.00 0.00 0.00 52 1014.3
20190819212921 96 1.0 2.0 0.00 0.00 0.00 50 1014.4
20190819211922 96 292 2.0 2.0 0.00 0.00 0.00 48 1014.3
20190819210916 96 0.0 0.0 0.00 0.00 0.00 46 1014.4
20190819205922 97 292 4.0 5.0 0.00 0.00 0.00 43 1014.4
20190819204923 97 292 4.0 4.0 0.00 0.00 0.00 45 1014.4
20190819203924 97 340 2.0 3.0 0.00 0.00 0.00 49 1014.5
20190819202925 96 326 3.0 4.0 0.00 0.00 0.00 51 1014.6
20190819201925 96 292 2.0 2.0 0.00 0.00 0.00 53 1014.5
20190819200926 95 270 3.0 3.0 0.00 0.00 0.00 54 1014.6
20190819195926 95 270 1.0 2.0 0.00 0.00 0.00 54 1014.7
20190819194927 96 305 1.0 2.0 0.00 0.00 0.00 52 1014.7
20190819193927 97 343 2.0 2.0 0.00 0.00 0.00 51 1014.7
20190819192922 97 315 3.0 3.0 0.00 0.00 0.00 49 1014.7
20190819191917 97 270 2.0 3.0 0.00 0.00 0.00 49 1014.8
20190819190930 98 270 4.0 4.0 0.00 0.00 0.00 49 1014.9
20190819185931 98 308 3.0 4.0 0.00 0.00 0.00 48 1014.9
20190819184932 99 281 4.0 4.0 0.00 0.00 0.00 48 1014.9
20190819183915 99 234 2.0 3.0 0.00 0.00 0.00 46 1015.1
20190819182916 99 259 4.0 5.0 0.00 0.00 0.00 45 1015.1
20190819181917 99 270 3.0 4.0 0.00 0.00 0.00 45 1015.4
20190819180918 99 237 3.0 3.0 0.00 0.00 0.00 47 1015.5
20190819175918 99 302 3.0 4.0 0.00 0.00 0.00 45 1015.5
20190819174919 98 225 2.0 2.0 0.00 0.00 0.00 49 1015.5
20190819173920 98 270 4.0 5.0 0.00 0.00 0.00 48 1015.6
20190819172921 98 270 1.0 2.0 0.00 0.00 0.00 49 1015.7
20190819171916 98 315 2.0 2.0 0.00 0.00 0.00 48 1015.7
20190819170923 98 270 3.0 3.0 0.00 0.00 0.00 50 1015.9
20190819165924 98 147 2.0 3.0 0.00 0.00 0.00 49 1015.8
20190819164926 98 270 2.0 2.0 0.00 0.00 0.00 50 1015.8
20190819163927 97 1.0 2.0 0.00 0.00 0.00 51 1015.9